sat.trackr.live / text

‹ back to catalog

ONEWEB-0427

NORAD 50499 · 2021-132AG

PAYLOAD ACTIVE UNKNOWN

§ Identity

Operator
Country
UK
Launch date
2021-12-27
Launch site
TYMSC
Launch vehicle
Mass (kg)
RCS (m²)

Purposes: comms

External: N2YO · Heavens-Above · Gunter

§ Orbital elements

Epoch: 2026-05-25T01:24:25.695072Z

Period
109.20 min
Inclination
87.9171°
Eccentricity
0.0002023
Mean motion
13.18686690 rev/d
Perigee alt
1,188.2 km
Apogee alt
1,191.3 km
Semi-major
7,567.9 km
B*
-2.0127e-5
RAAN
340.0368°
Arg perigee
92.9590°
Mean anomaly
267.1774°
Rev number
21,856

§ Raw data

ONEWEB-04271 50499U 21132AG  26145.05863073  .00000005  00000+0 -20127-4 0  99972 50499  87.9171 340.0368 0002023  92.9590 267.1774 13.18686690218561

JSON: /api/v1/satellites/50499 · /tle

For live sub-satellite position, see the globe view (requires WebGL).

§ Visibility from observer

Set your observer location to see the next 7 days of passes ≥ 10°. The values pass through the URL so the page stays shareable.

No JS? Fill the form by hand. The geolocation button needs JavaScript.